Flag for United Kingdom Weather past 2 weeks in Durham, England, United Kingdom

Now
32 °F

Passing clouds.


Feels Like: 32 °F
Forecast: 32 / 40 °F
Wind: 2 mph from Southwest

Location: Newcastle

Current Time: Dec 26, 2014 at 8:54:38 AM

Latest Report: Dec 26, 2014 at 8:20 AM


Visibility: N/A

Pressure: 30.27 "Hg

Humidity: 100%

Dew point: 32 °F

Location of DurhamLocation

Historic Weather in Durham — Graph

°F

Durham temperature yesterday

Maximum temperature yesterday: 41 °F (at 12:20 AM)
Minimum temperature yesterday: 28 °F (at 8:20 PM)
Average temperature yesterday: 37 °F

Past Weeks' High & Low Weather Summary

 TemperatureHumidityPressure
High57 °F (Dec 21, 8:20 PM)100% (Dec 16, 10:20 PM)30.42 "Hg (Dec 16, 10:20 PM)
Low28 °F (Dec 13, 4:50 AM)70% (Dec 11, 2:20 PM)29.12 "Hg (Dec 12, 4:50 AM)
Average42 °F86%29.69 "Hg
* Reported Dec 11 7:20 AM — Dec 26 7:20 AM, Durham, Weather by CustomWeather, © 2014

Note: Actual official high and low records may vary slightly from our data, if they occured in-between our weather recording intervals... More about our weather records

Advertising

Durham weather history for previous 24 hours

 ConditionsComfort  
Time TempWeatherWind HumidityBarometerVisibility
7:20 AM
Dec 26
32 °FPassing clouds.2 mph100%30.30 "HgN/A
6:50 AM32 °FPassing clouds.3 mph100%30.30 "HgN/A
6:20 AM32 °FPassing clouds.2 mph100%30.30 "HgN/A
5:50 AM32 °FPassing clouds.2 mph100%30.30 "Hg4 mi
5:20 AM32 °FIce fog.1 mph100%30.33 "Hg1 mi
4:50 AM32 °FIce fog.1 mph100%30.33 "Hg1 mi
4:20 AM30 °FIce fog.2 mph100%30.36 "Hg1 mi
3:20 AM28 °FIce fog.2 mph100%30.39 "Hg0 mi
2:20 AM28 °FIce fog.No wind100%30.39 "Hg0 mi
1:50 AM28 °FIce fog.1 mph100%30.39 "Hg0 mi
1:20 AM28 °FLight fog.3 mph100%30.39 "Hg1 mi
12:50 AM28 °FLight fog.1 mph100%30.39 "Hg2 mi
12:20 AM28 °FFog.1 mph100%30.39 "Hg6 mi
11:50 PM
Dec 25
28 °FFog.1 mph100%30.39 "Hg6 mi
11:20 PM30 °FClear.5 mph100%30.42 "Hg10 mi
10:50 PM32 °FClear.3 mph100%30.42 "Hg10 mi
10:20 PM32 °FClear.3 mph100%30.42 "Hg10 mi
9:50 PM32 °FClear.5 mph100%30.42 "Hg10 mi
9:20 PM32 °FClear.1 mph93%30.42 "Hg10 mi
8:50 PM30 °FClear.5 mph100%30.42 "Hg10 mi
8:20 PM28 °FClear.1 mph100%30.39 "Hg10 mi
7:50 PM32 °FClear.No wind100%30.39 "Hg10 mi
7:20 PM32 °FClear.No wind100%30.39 "Hg10 mi
6:50 PM36 °FClear.2 mph93%30.39 "Hg10 mi
6:20 PM34 °FPassing clouds.3 mph100%30.39 "HgN/A
5:50 PM36 °FPassing clouds.3 mph93%30.39 "HgN/A
5:20 PM37 °FPassing clouds.2 mph93%30.36 "HgN/A
4:50 PM37 °FPassing clouds.5 mph93%30.36 "HgN/A
4:20 PM37 °FPassing clouds.3 mph93%30.36 "HgN/A
3:20 PM41 °FPartly sunny.6 mph87%30.33 "HgN/A
2:50 PM41 °FScattered clouds.6 mph87%30.33 "HgN/A
2:20 PM41 °FScattered clouds.8 mph87%30.30 "HgN/A
1:50 PM41 °FScattered clouds.7 mph87%30.30 "HgN/A
1:20 PM41 °FScattered clouds.7 mph87%30.30 "HgN/A
12:50 PM41 °FPartly sunny.6 mph87%30.30 "HgN/A
12:20 PM41 °FPartly sunny.6 mph87%30.30 "HgN/A
11:50 AM39 °FBroken clouds.7 mph93%30.27 "HgN/A
11:20 AM39 °FScattered clouds.8 mph93%30.27 "HgN/A
10:50 AM39 °FPassing clouds.9 mph93%30.27 "HgN/A
10:20 AM37 °FPassing clouds.9 mph93%30.27 "HgN/A
9:50 AM37 °FPassing clouds.7 mph93%30.24 "HgN/A
9:20 AM37 °FPassing clouds.6 mph93%30.21 "HgN/A
8:50 AM37 °FPassing clouds.7 mph93%30.21 "HgN/A
8:20 AM37 °FPassing clouds.6 mph87%30.21 "HgN/A
Weather by CustomWeather, © 2014

See weather overviewHow to use our weather pages